Weather History for KBBW - January, 2013

Change the Weather History Date:

Friday, January 18, 2013

  Actual Average Record
Temperature  
Mean Temperature 40 °F 26 °F  
Max Temperature 59 °F 38 °F 76 °F (1951)
Min Temperature 20 °F 14 °F -24 °F (1984)
Degree Days  
Heating Degree Days 25 39  
Month to date heating degree days 715 709  
Cooling Degree Days 0 0  
Month to date cooling degree days 0 0  
Year to date cooling degree days 0 0  
Moisture  
Dew Point 19 °F    
Average Humidity 53    
Maximum Humidity 84    
Minimum Humidity 21    
Precipitation  
Precipitation 0.00 in 0.01 in 0.50 in (1955)
Sea Level Pressure  
Sea Level Pressure 30.03 in    
Wind  
Wind Speed 8 mph (West)    
Max Wind Speed 17 mph    
Max Gust Speed 21 mph    
Visibility 10 miles    
Events      
T = Trace of Precipitation, MM = Missing Value Source: NWS Daily Summary

Daily Weather History Graph

Daily Weather History Graph

Search for Another Location

Airport or City:

Trip Planner

Search our weather history database for the weather conditions in past years. The results will help you decide how hot, cold, wet, or windy it might be!

Date:

Astronomy

Jan. 18, 2013 Rise Set
Actual Time 8:00 AM CST 5:37 PM CST
Civil Twilight 7:30 AM CST 6:08 PM CST
Nautical Twilight 6:56 AM CST 6:42 PM CST
Astronomical Twilight 6:23 AM CST 7:15 PM CST
Moon 11:34 AM CST (1/18) 12:35 AM CST (1/18)
Length of Visible Light 10h 37m
Length of Day
9h 36m
Waxing Crescent, 47% of the Moon is Illuminated
Jan 18
Waxing Crescent
Jan 18
First Quarter
Jan 26
Full
Feb 3
Last Quarter
Feb 10
New

Hourly Weather History & Observations

Time (CST) Temp. Windchill Dew Point Humidity Pressure Visibility Wind Dir Wind Speed Gust Speed Precip Events Conditions
12:53 AM 19.9 °F - 16.0 °F 85% 30.23 in 10.0 mi Calm Calm - N/A   Clear
1:53 AM 24.1 °F 17.0 °F 18.0 °F 77% 30.19 in 10.0 mi SW 5.8 mph - N/A   Clear
2:53 AM 32.0 °F 26.4 °F 19.9 °F 61% 30.15 in 10.0 mi WSW 5.8 mph - N/A   Clear
3:53 AM 32.0 °F 24.2 °F 19.9 °F 61% 30.11 in 10.0 mi SW 9.2 mph - N/A   Clear
4:53 AM 27.0 °F 19.5 °F 19.0 °F 72% 30.08 in 10.0 mi West 6.9 mph - N/A   Clear
5:53 AM 27.0 °F 18.0 °F 19.9 °F 75% 30.09 in 10.0 mi WNW 9.2 mph - N/A   Clear
6:53 AM 28.9 °F 19.2 °F 19.9 °F 69% 30.07 in 10.0 mi West 11.5 mph - N/A   Clear
7:53 AM 32.0 °F 23.0 °F 19.0 °F 59% 30.07 in 10.0 mi West 11.5 mph - N/A   Clear
8:53 AM 34.0 °F 24.6 °F 18.0 °F 52% 30.07 in 10.0 mi West 13.8 mph - N/A   Clear
9:53 AM 39.9 °F 34.5 °F 19.0 °F 43% 30.06 in 10.0 mi West 8.1 mph - N/A   Clear
10:53 AM 46.9 °F - 19.9 °F 34% 30.05 in 10.0 mi West 5.8 mph - N/A   Clear
11:53 AM 48.9 °F - 19.0 °F 31% 30.04 in 10.0 mi NW 9.2 mph - N/A   Clear
12:53 PM 54.0 °F - 18.0 °F 24% 30.01 in 10.0 mi WNW 11.5 mph - N/A   Clear
1:53 PM 57.0 °F - 18.0 °F 22% 29.96 in 10.0 mi West 6.9 mph - N/A   Clear
2:53 PM 57.9 °F - 17.1 °F 20% 29.95 in 10.0 mi West 12.7 mph - N/A   Clear
3:53 PM 57.9 °F - 17.1 °F 20% 29.94 in 10.0 mi West 9.2 mph - N/A   Clear
4:53 PM 55.0 °F - 19.0 °F 24% 29.96 in 10.0 mi West 8.1 mph - N/A   Clear
5:53 PM 46.0 °F 42.5 °F 19.0 °F 34% 29.98 in 10.0 mi West 6.9 mph - N/A   Clear
6:53 PM 41.0 °F 35.2 °F 19.0 °F 41% 29.99 in 10.0 mi West 9.2 mph - N/A   Clear
7:53 PM 37.0 °F 31.6 °F 18.0 °F 46% 29.99 in 10.0 mi West 6.9 mph - N/A   Clear
8:53 PM 34.0 °F - 18.0 °F 52% 29.98 in 10.0 mi Calm Calm - N/A   Clear
9:53 PM 32.0 °F - 18.0 °F 56% 29.96 in 10.0 mi Calm Calm - N/A   Clear
10:53 PM 30.0 °F 26.5 °F 18.0 °F 61% 29.95 in 10.0 mi West 3.5 mph - N/A   Clear
11:53 PM 37.9 °F 30.9 °F 19.0 °F 47% 29.91 in 10.0 mi West 10.4 mph - N/A   Clear